Accueil
METAR-TAF:

METAR-TAF

Aéroports :

Ann Arbor, Michigan, États-Unis

latitude: 42-13-26N, longitude: 083-44-24W, altitude: 255 m

Observation

Le bulletin a été fait il y a 48 minutes, à 14:53 UTC
Vent 4 kt de sud-est
Température 12°C
Humidité 82%
Pression 1016 hPa
Visibilité: 16.1 km
Ciel couvert à une hauteur de 5000 ft

METAR: KARB 241453Z 14004KT 10SM OVC050 12/09 A3000 RMK AO2 RAE07B24E37 SLP162 P0001 60002 T01220089 58011

Heure: 11:41 (15:41 UTC)


TAF: absent

Observations et prévisions météorologiques de plus de 4000 aéroports (messages METAR et TAF).

Les stations disponibles sont représentées par des disques jaunes et rouges sur la carte.

Passer la souris dessus pour voir le nom de la station.

Cliquer dessus pour voir les observations et prévisions météorologiques.

Pour changer de carte: cliquez sur les boutons verts avec une croix noire pour zoomer, sur le bouton vert avec un tiret pour effectuer un zoom arrière, ou sur les flèches vertes pour les cartes adjacentes.


METAR-TAF: